Regional Weather Roundup
Issued by NWS

Home | Current Version | Previous Version | Text Only | Print | Product List | Glossary On
Versions: 1 2 3 4 5 6 7 8 9 10 11 12 13 14 15 16 17 18 19 20 21 22 23 24 25 26 27 28 29 30 31 32 33 34 35 36 37 38 39 40 41 42 43 44 45 46 47 48 49 50
000
ASUS43 KDMX 012207
RWRIA

WEATHER ROUNDUP FOR IOWA
NATIONAL WEATHER SERVICE DES MOINES IA
500 PM CDT WED OCT 01 2014

NOTE: "FAIR" INDICATES FEW OR NO CLOUDS BELOW 12,000 FEET WITH NO
SIGNIFICANT WEATHER AND/OR OBSTRUCTIONS TO VISIBILITY.

* - THESE STATIONS ARE NOT NWS STATIONS...THUS NOT UNDER NWS
QUALITY CONTROL.  THEY ALSO DO NOT REPORT WEATHER SUCH
AS PRECIPITATION OR FOG.

IAZ001>003-012>014-020>022-031>034-043>046-012300-
   NORTHWEST IOWA

CITY           SKY/WX    TMP DP  RH WIND       PRES   REMARKS
CARROLL *      MOSUNNY   75  63  64 S8        29.74R
CHEROKEE *     MOSUNNY   75  59  57 CALM      29.73R
DENISON *      SUNNY     73  63  68 CALM      29.72R
LE MARS *      PTSUNNY   75  59  57 S5        29.72S
ORANGE CITY *  MOSUNNY   75  55  50 S6        29.73R
SHELDON *      PTSUNNY   73  57  56 S7        29.71S
SIOUX CITY     TSTM      73  61  65 S8        29.72R
SPENCER        MOSUNNY   71  60  68 E7        29.74F
STORM LAKE *   SUNNY     75  57  53 VRB3      29.75R
$$

IAZ055>058-069>071-079>083-090>094-012300-
   SOUTHWEST IOWA

CITY           SKY/WX    TMP DP  RH WIND       PRES   REMARKS
ATLANTIC *     MOSUNNY   72  64  78 CALM      29.73S
AUDUBON *      MOSUNNY   73  63  68 S3        29.75R
CLARINDA *     MOSUNNY   77  64  65 SE5       29.74S
COUNCIL BLFS * MOSUNNY   73  66  78 CALM      29.72S
CRESTON *      MOSUNNY   72  64  78 SE8G14    29.76R
HARLAN  *      SUNNY     73  63  68 VRB3      29.77S
LAMONI         CLOUDY    69  64  84 SE6       29.77S
RED OAK *      SUNNY     75  66  73 CALM      29.73S
SHENANDOAH *   SUNNY     77  66  69 CALM      29.72S
$$

IAZ047>049-059>061-072>074-084-012300-
   CENTRAL IOWA

CITY           SKY/WX    TMP DP  RH WIND       PRES   REMARKS
AMES           CLOUDY    69  63  81 S7        29.76R
ANKENY *       MOSUNNY   72  64  78 S9        29.76R
CHARITON *     CLOUDY    68  64  88 S9        29.77S
DES MOINES     CLOUDY    71  63  75 S10       29.76R
GRINNELL*      CLOUDY    68  63  83 S7        29.80R
KNOXVILLE *    CLOUDY    68  64  88 S6        29.77R
MARSHALLTOWN   CLOUDY    69  62  78 S7        29.77R
PELLA *        PTSUNNY   68  64  88 S5        29.79S
PERRY *        PTSUNNY   72  64  78 SE3       29.75R
$$

IAZ004>006-015-016-023>025-035-036-012300-
   NORTH CENTRAL IOWA

CITY           SKY/WX    TMP DP  RH WIND       PRES   REMARKS
ALGONA *       MOSUNNY   72  63  73 SE7       29.75S
CLARION *      CLOUDY    68  64  88 S8        29.76R
ESTHERVILLE    SUNNY     69  58  67 S7        29.74F
FORT DODGE *   PTSUNNY   70  63  78 S7        29.75S
MASON CITY     CLOUDY    63  60  90 SE5       29.79R
FOREST CITY *  CLOUDY    64  63  94 S6        29.78R
IOWA FALLS *   PTSUNNY   68  61  77 SE6       29.78R
$$

IAZ007>011-017>019-026>030-037>042-050>054-066-012300-
   NORTHEAST IOWA

CITY           SKY/WX    TMP DP  RH WIND       PRES   REMARKS
CEDAR RAPIDS   CLOUDY    66  61  82 S9        29.81R
CHARLES CITY * PTSUNNY   68  59  73 VRB5      29.79S
CLINTON *      CLOUDY    72  57  60 SW9       29.86R
DECORAH *      CLOUDY    68  55  64 SE6G12    29.79S
MONTICELLO *   PTSUNNY   72  59  64 S12G18    29.81R
OELWEIN *      CLOUDY    70  59  68 S7G15     29.80R
WATERLOO       CLOUDY    68  62  81 SE5       29.78R
$$

IAZ064-065-067-068-078-012300-
   EAST CENTRAL IOWA

CITY           SKY/WX    TMP DP  RH WIND       PRES   REMARKS
IOWA CITY      PTSUNNY   67  61  81 S9        29.82R
MT. PLEASANT * DRIZZLE   66  63  88 S5        29.81R
MUSCATINE *    MOSUNNY   70  61  73 S9        29.81S
QUAD CITIES    CLOUDY    71  60  68 VRB3      29.80F
$$

IAZ062-063-075>077-085>089-095>099-012300-
   SOUTHEAST IOWA

CITY           SKY/WX    TMP DP  RH WIND       PRES   REMARKS
BURLINGTON     LGT RAIN  66  64  93 S10       29.80F FOG
FAIRFIELD *    PTSUNNY   66  63  88 S13       29.81R
FORT MADISON * PTSUNNY   66  64  94 S7        29.82R FOG
KEOKUK *       CLOUDY    64  64 100 S10G20    29.82R
OSKALOOSA *    PTSUNNY   70  64  83 S12       29.80R
CENTERVILLE *  CLOUDY    66  66 100 SE6       29.80S
OTTUMWA        CLOUDY    68  63  84 S7        29.78R
WASHINGTON *   SUNNY     68  64  88 S8G15     29.80R
$$

ABBREVIATIONS USED IN REMARKS
   TC - TEMPERATURES IN CELSIUS
  WCI - WIND CHILL INDEX
   HX - HEAT INDEX
  VSB - VISIBILITY
$$




USA.gov is the U.S. government's official web portal to all federal, state and local government web resources and services.